FW0850 Weather Reports


time (UTC)temp
C
wind
direction
speed
KPH
gust
KPH
rain 1hr
cm
rain 24hr
cm
rain mn
cm
humidity
%
barometer
mb
20260503004543 10 60 4.8 9.7 0.00 0.00 0.00 59 1009.4
20260503003046 10 320 0.0 4.8 0.00 0.00 0.00 57 1009.6
20260503001542 11 44 0.0 6.4 0.00 0.00 0.00 54 1009.7
20260503000046 12 19 1.6 9.7 0.00 0.00 0.00 49 1009.7
20260502234549 17 203 3.2 9.7 0.00 0.00 0.00 42 1009.8
20260502233033 17 167 8.0 9.7 0.00 0.00 0.00 41 1009.8
20260502231533 16 224 11.3 17.7 0.00 0.00 0.00 42 1010.1
20260502230030 17 200 11.3 22.5 0.00 0.00 0.00 42 1010.1
20260502224602 18 179 11.3 29.0 0.00 0.00 0.00 37 1010.3
20260502223104 18 186 12.9 24.1 0.00 0.00 0.00 36 1010.5
20260502221524 18 169 3.2 29.0 0.00 0.00 0.00 37 1010.8
20260502220020 15 205 4.8 14.5 0.00 0.00 0.00 41 1010.9
20260502214517 13 61 1.6 8.0 0.00 0.00 0.00 42 1010.9
20260502213015 14 53 0.0 9.7 0.00 0.00 0.00 41 1011.3
20260502211513 15 83 3.2 8.0 0.00 0.00 0.00 40 1011.5
20260502210011 14 56 6.4 12.9 0.00 0.00 0.00 40 1011.9
20260502204541 15 58 4.8 9.7 0.00 0.00 0.00 38 1012.1
20260502203103 15 356 1.6 9.7 0.00 0.00 0.00 38 1012.4
20260502201506 14 60 9.7 14.5 0.00 0.00 0.00 38 1012.7
20260502200003 15 76 3.2 9.7 0.00 0.00 0.00 36 1013.0
20260502194556 13 70 4.8 11.3 0.00 0.00 0.00 41 1013.7
20260502193054 13 13 1.6 9.7 0.00 0.00 0.00 39 1013.8
20260502191559 13 64 3.2 11.3 0.00 0.00 0.00 41 1014.1
20260502190049 12 75 3.2 9.7 0.00 0.00 0.00 41 1014.4
20260502184547 13 70 3.2 9.7 0.00 0.00 0.00 42 1014.7
20260502184545 13 74 3.2 9.7 0.00 0.00 0.00 42 1014.7
20260502183013 12 116 3.2 8.0 0.00 0.00 0.00 44 1015.0
20260502181510 11 63 1.6 8.0 0.00 0.00 0.00 48 1015.3
20260502163102 9 87 3.2 9.7 0.00 0.00 0.00 54 1017.3
20260502161558 9 100 3.2 9.7 0.00 0.00 0.00 56 1017.5
20260502151527 7 83 1.6 9.7 0.00 0.00 0.00 63 1018.4
20260502130108 2 105 1.6 4.8 0.00 0.00 0.00 77 1019.5
20260502123117 3 146 0.0 3.2 0.00 0.00 0.00 75 1019.5
20260502121609 3 188 0.0 3.2 0.00 0.00 0.00 74 1019.6
20260502114502 3 311 0.0 0.0 0.00 0.00 0.00 72 1019.8
20260502113133 1 311 0.0 1.6 0.00 0.00 0.00 74 1019.7
20260502111559 1 311 0.0 1.6 0.00 0.00 0.00 76 1019.6
20260502110028 0 311 0.0 1.6 0.00 0.00 0.00 75 1019.7
20260502104532 0 311 0.0 3.2 0.00 0.00 0.00 77 1019.7
20260502103057 0 318 0.0 1.6 0.00 0.00 0.00 78 1019.6
20260502101604 0 318 1.6 1.6 0.00 0.00 0.00 76 1019.6
20260502071532 1 319 1.6 3.2 0.00 0.00 0.00 72 1020.2
20260502070001 1 307 0.0 3.2 0.00 0.00 0.00 72 1020.2
20260502064559 1 307 1.6 3.2 0.00 0.00 0.00 71 1020.3
20260502063055 1 307 1.6 3.2 0.00 0.00 0.00 70 1020.3
20260502061554 1 307 0.0 3.2 0.00 0.00 0.00 70 1020.5
20260502060054 2 314 1.6 6.4 0.00 0.00 0.00 69 1020.4
20260502054550 2 314 3.2 6.4 0.00 0.00 0.00 69 1020.4
20260502053040 2 308 3.2 6.4 0.00 0.00 0.00 69 1020.5
20260502051537 2 291 1.6 0.0 0.00 0.00 0.00 70 1020.4
20260502050039 2 268 1.6 3.2 0.00 0.00 0.00 71 1020.5
20260502044530 2 267 0.0 1.6 0.00 0.00 0.00 69 1020.6
20260502043032 2 266 0.0 3.2 0.00 0.00 0.00 69 1020.6
20260502041527 2 139 0.0 1.6 0.00 0.00 0.00 68 1020.6
20260502040027 2 139 0.0 1.6 0.00 0.00 0.00 68 1020.6
20260502034527 3 139 0.0 0.0 0.00 0.00 0.00 68 1020.7
20260502033125 3 139 0.0 0.0 0.00 0.00 0.00 69 1020.7
20260502031555 3 139 0.0 1.6 0.00 0.00 0.00 72 1020.7
20260502030054 4 124 0.0 1.6 0.00 0.00 0.00 62 1020.7
20260502024550 4 317 1.6 3.2 0.00 0.00 0.00 61 1020.8
20260502023049 4 358 0.0 1.6 0.00 0.00 0.00 61 1020.6
20260502021548 5 359 1.6 1.6 0.00 0.00 0.00 61 1020.5
20260502020048 5 360 0.0 1.6 0.00 0.00 0.00 59 1020.4
20260502014544 5 360 0.0 1.6 0.00 0.00 0.00 58 1020.4
20260502013044 5 360 0.0 1.6 0.00 0.00 0.00 57 1020.4
20260502011543 6 360 0.0 1.6 0.00 0.00 0.00 57 1020.1
20260502010042 6 360 0.0 1.6 0.00 0.00 0.00 55 1020.2